Location: Catstown
(52.4386°N, 7.2633°W)
Time: 12:46:36
(UTC+00:00)

Meteor 2-5 Rocket - Pass Details

Date: 18 September 2020
Orbit: 833 x 912 km, 81.2° (Epoch: 24 October)

Event Time Altitude Azimuth Distance (km) Brightness Sun altitude
Rises 20:19:20 0° 348° (NNW) 3,411 7.4 -16.1°
Reaches altitude 10° 20:21:47 10° 353° (N) 2,480 6.6 -16.4°
Maximum altitude 20:27:20 58° 72° (ENE) 997 3.8 -17.2°
Enters shadow 20:30:28 26° 142° (SE) 1,637 4.7 -17.6°
